Theta_e
292 292 292 292 293 293 293 294 294 295 295 296 297 297 298 299 300 297 294 296 289 283 282 284 284 281 280 279 276 277 282 281 279 279 275 274 269 272 271 273 279 281 279 278 274 273 271 281 280 278 280 282 283 284
292 292 292 292 291 292 292 293 293 294 295 295 296 297 297 298 298 299 291 296 295 286 286 287 286 287 287 286 282 276 278 276 282 277 273 272 268 269 267 268 277 275 280 277 280 279 282 281 282 283 285 284 284 284
290 291 291 291 291 291 291 291 292 293 294 295 295 296 297 297 298 297 290 294 291 284 284 285 282 287 288 288 289 281 276 282 282 281 276 272 270 274 269 270 271 276 279 277 278 278 280 281 282 284 284 284 284 283
290 290 290 290 290 291 291 291 291 292 293 294 295 295 296 296 297 296 290 293 290 285 278 277 285 284 287 288 287 287 285 283 282 279 273 270 270 278 272 275 275 277 279 275 275 278 280 281 282 284 283 283 282 281
289 289 290 290 290 290 291 291 291 291 292 293 294 295 295 296 296 294 292 293 293 285 278 272 279 283 285 286 286 286 285 282 276 274 276 273 272 273 269 273 271 278 277 276 274 280 281 281 283 283 281 281 281 281
288 289 289 289 290 290 291 291 291 291 292 292 293 294 295 295 295 289 282 290 292 290 281 272 280 276 280 283 284 284 284 280 278 276 272 271 278 277 268 266 277 279 280 281 279 282 282 282 283 281 281 280 280 279
288 288 288 288 289 290 291 291 292 292 292 292 293 294 294 295 291 284 281 283 293 291 280 276 271 278 282 278 276 278 281 279 279 274 274 276 277 275 266 268 277 279 280 280 281 280 278 279 279 279 279 278 274 273
288 289 288 289 289 290 290 291 291 293 292 292 292 293 294 294 293 286 289 292 293 284 277 274 273 275 280 277 277 283 280 280 280 281 272 277 277 275 271 278 279 279 279 278 278 278 278 277 276 275 273 271 269 270
290 290 290 290 290 290 290 293 293 293 292 292 292 293 290 287 283 284 293 294 292 282 275 273 268 267 276 276 280 282 281 277 281 279 276 277 274 273 277 280 278 276 277 277 272 270 270 271 272 270 269 266 267 267
290 289 289 290 291 291 291 291 293 293 292 292 288 283 279 283 292 291 286 282 282 282 273 267 261 265 278 274 275 275 277 278 272 276 278 275 277 280 279 276 277 276 276 273 268 267 262 264 268 267 266 265 265 263
289 288 288 288 288 289 289 290 291 292 292 286 280 278 282 291 281 280 276 275 276 273 275 266 267 266 274 270 272 276 269 274 271 270 273 270 271 278 282 272 275 276 274 274 277 277 275 272 269 267 263 262 260 258
288 288 288 289 288 289 289 290 293 290 284 285 283 283 281 278 275 273 271 273 273 270 268 271 269 273 274 274 272 275 269 271 269 275 272 269 275 279 276 274 269 272 273 267 263 266 264 264 262 263 260 257 255 254
287 288 287 287 287 288 288 291 292 290 289 285 280 277 276 275 269 267 266 266 268 263 270 270 269 273 278 278 275 273 271 269 273 270 268 268 274 265 272 271 264 258 263 259 256 257 258 256 255 254 253 250 252 249
286 287 285 285 286 287 287 289 292 289 283 276 273 269 270 267 266 267 264 265 266 266 267 270 273 269 272 273 275 269 269 267 267 266 267 265 268 270 270 262 260 260 260 259 256 255 254 254 252 248 251 250 249 248
286 284 283 283 286 286 287 290 287 271 273 272 271 267 268 264 257 249 250 258 257 262 273 266 266 273 272 271 273 268 265 264 265 263 266 268 262 261 258 255 255 257 257 255 254 254 253 253 252 249 245 245 245 245
284 278 277 284 285 289 289 280 269 266 258 262 260 259 251 254 252 249 248 257 257 265 265 266 263 263 262 267 267 265 265 264 266 263 256 252 252 252 249 252 253 253 253 251 251 252 252 250 251 249 243 243 244 246
279 268 280 282 282 279 279 268 264 257 257 256 254 250 252 251 251 247 247 253 258 263 263 262 263 263 265 263 259 262 263 265 259 247 247 247 248 247 248 250 250 252 252 251 251 251 248 246 247 247 247 244 242 242
268 273 279 280 276 272 264 263 256 253 250 248 252 250 247 247 249 248 248 253 258 258 260 263 265 261 262 261 260 261 248 244 246 245 247 245 245 247 249 249 249 250 249 248 249 249 249 248 249 248 245 242 244 242
275 275 277 277 274 266 262 259 257 251 249 246 250 251 248 248 251 252 250 253 254 256 256 260 262 259 261 251 249 244 245 246 247 248 247 245 246 247 250 250 250 250 248 246 248 248 245 244 246 246 246 245 246 243
276 275 275 273 272 265 259 258 258 254 248 252 251 250 252 252 253 253 253 254 257 257 261 260 254 245 245 245 247 250 253 252 251 248 248 249 249 249 249 248 250 250 248 246 245 245 245 245 242 241 242 243 245 244
267 267 269 264 260 259 255 256 254 254 253 251 252 254 254 254 251 250 250 254 252 248 250 243 242 243 245 245 247 248 251 254 255 255 253 250 250 251 251 250 250 249 248 248 247 245 243 244 244 241 242 242 241 242
261 268 258 262 259 256 254 253 254 255 254 251 252 253 250 250 251 250 252 250 247 245 244 243 244 246 248 247 246 246 246 250 251 253 252 252 250 250 249 249 250 248 247 245 245 245 241 240 241 241 242 242 245 244
261 261 255 254 255 253 250 253 252 251 254 250 251 251 251 252 251 252 247 247 245 245 245 244 245 246 246 247 248 248 247 250 249 250 250 249 247 248 247 245 246 245 242 241 238 240 242 245 246 244 244 245 244 244
255 246 247 246 248 245 246 247 250 251 251 250 253 252 250 248 248 253 249 246 246 247 247 246 246 248 248 249 248 247 245 245 246 245 244 248 247 243 239 238 237 238 241 242 242 241 242 242 246 244 244 243 242 243
252 241 243 240 243 245 244 244 246 248 248 246 250 251 249 245 253 251 251 247 247 247 246 245 246 246 249 247 247 246 244 244 245 242 240 238 239 239 241 239 239 239 239 244 241 241 241 240 242 242 243 242 242 243
240 235 238 232 238 241 238 244 239 240 243 246 245 244 244 249 255 253 250 248 247 247 247 247 248 246 245 243 245 247 244 239 240 243 241 238 240 241 239 241 242 244 242 241 242 240 240 242 241 241 242 243 246 244
240 237 236 235 235 235 237 236 236 238 237 238 237 240 245 251 250 249 247 246 247 246 245 245 246 246 246 245 244 241 237 234 239 241 238 238 240 239 242 242 242 245 242 243 242 242 242 243 242 243 244 243 244 244
236 235 238 236 235 232 234 233 234 235 235 237 234 240 243 245 247 244 244 245 241 240 240 239 240 240 239 238 236 237 238 236 238 239 240 240 238 239 239 240 242 252 243 244 245 245 245 246 246 246 247 247 247 247
236 233 234 237 235 237 235 235 235 234 236 232 236 238 239 239 237 236 239 238 233 236 238 238 239 234 236 236 235 235 235 239 242 242 241 241 242 246 243 242 243 245 245 247 253 252 249 249 249 249 249 249 249 249
236 231 237 235 238 238 237 235 234 231 230 233 233 237 238 237 237 233 233 233 237 238 237 235 234 236 237 237 239 240 237 238 240 242 242 242 244 242 241 243 244 245 245 244 247 248 252 250 250 249 250 249 249 249
232 231 236 236 238 235 232 228 227 228 229 229 227 232 235 234 237 234 235 234 233 231 234 236 234 232 235 236 237 238 242 241 242 243 242 241 241 241 242 243 245 244 245 246 246 247 248 248 248 248 248 248 248 248
234 232 236 240 239 233 229 229 229 231 229 232 233 227 233 235 238 240 238 235 234 235 239 237 236 241 240 242 239 239 245 241 241 244 245 246 246 245 244 244 243 243 245 246 246 246 248 248 248 248 248 247 247 247
231 229 229 234 237 238 234 233 235 237 234 234 234 230 230 235 240 243 240 238 240 240 240 241 242 239 240 241 242 242 245 244 244 249 252 251 249 248 243 243 244 244 245 245 245 246 246 246 247 247 246 246 247 247
Wind_Speed
13 12 12 10 10 13 14 14 15 14 14 15 15 15 16 16 14 6 1 9 5 3 4 6 6 6 3 2 5 4 3 1 3 3 5 4 4 6 4 3 6 9 8 5 3 3 10 9 3 11 5 3 6 5
12 12 11 9 9 8 10 11 14 15 15 15 15 14 16 15 15 11 2 5 6 3 2 2 5 4 7 10 7 2 3 4 5 4 1 4 3 1 5 4 2 3 6 7 9 7 1 5 3 3 4 7 4 6
11 10 12 11 11 11 10 10 9 12 15 17 16 16 16 16 15 12 3 3 3 2 2 2 6 5 3 5 5 6 2 2 1 2 4 2 4 4 5 6 2 3 2 3 4 2 5 5 4 4 4 6 7 6
15 17 15 14 15 14 14 14 13 12 13 16 17 17 16 15 15 14 3 3 1 3 3 6 2 5 3 6 3 2 7 5 5 2 3 4 3 2 3 3 4 4 8 6 1 3 5 3 2 7 7 8 8 4
15 15 16 18 18 18 17 18 18 16 15 16 17 19 17 16 16 6 3 5 3 2 1 3 3 4 3 6 8 7 8 6 3 3 2 4 2 4 2 3 3 6 8 6 6 10 6 7 8 7 8 7 7 7
16 17 15 18 18 19 20 20 22 22 19 17 18 19 20 19 15 3 3 4 7 4 0 2 2 2 1 4 8 8 5 3 4 5 4 2 2 4 5 5 5 7 5 6 6 8 6 6 11 6 7 6 5 5
24 22 21 20 21 22 23 23 26 24 24 22 19 19 20 20 8 4 3 4 16 5 3 2 3 2 4 4 2 3 2 2 4 3 3 4 3 5 4 6 6 8 9 6 5 9 3 5 7 7 6 7 6 4
25 28 27 26 25 26 25 26 21 31 32 26 22 21 20 20 15 8 5 6 10 4 3 3 2 2 2 4 2 2 3 2 3 4 2 4 2 2 3 22 9 8 7 6 10 3 4 7 8 7 5 6 5 5
31 31 28 25 25 27 21 26 29 24 28 25 22 20 9 7 5 2 18 16 6 4 5 3 6 4 1 1 3 2 2 4 2 8 5 7 5 8 16 11 11 9 13 11 6 6 5 5 8 8 6 4 6 5
15 11 8 18 23 21 26 18 20 21 20 23 12 5 5 6 11 13 7 6 10 5 2 5 1 3 3 4 4 5 3 4 5 5 4 6 9 17 15 8 10 15 12 14 8 2 2 4 10 10 10 5 5 6
20 14 13 6 7 12 17 19 24 26 26 13 8 5 3 15 4 3 5 6 4 6 3 4 5 5 3 4 5 3 4 3 4 6 7 5 4 18 20 9 10 12 13 15 14 13 12 8 9 10 7 7 6 6
23 20 17 10 14 17 21 25 19 16 6 10 7 7 3 3 3 6 5 2 5 6 3 9 6 5 3 3 3 3 5 4 7 9 6 4 10 15 10 12 8 10 14 11 5 10 8 8 5 8 9 8 6 5
23 21 17 11 18 21 20 21 17 19 25 5 4 6 5 5 9 9 9 2 3 1 5 4 4 5 2 2 3 4 6 8 5 6 6 7 9 5 10 8 6 3 8 11 7 7 9 9 7 5 7 3 7 5
23 21 16 13 21 19 16 12 22 18 7 3 4 6 6 4 4 4 6 6 6 5 6 5 5 5 3 4 3 3 1 2 4 7 7 5 9 9 10 3 9 12 10 11 11 10 10 10 7 5 6 5 6 5
23 17 8 15 24 20 15 14 21 7 4 2 4 6 5 2 2 1 2 2 0 2 7 4 4 5 3 3 3 4 3 3 4 6 6 6 4 5 7 4 6 10 9 10 7 8 8 8 8 6 3 4 3 4
20 7 6 25 25 5 24 19 10 5 6 4 5 3 1 3 4 3 3 2 2 1 3 4 4 4 4 5 5 6 6 5 5 6 3 5 6 5 3 4 5 9 10 9 8 7 8 8 8 7 4 3 4 4
8 2 19 19 13 16 19 8 5 8 6 4 2 1 2 3 3 2 3 1 3 2 4 5 6 11 3 3 2 4 7 6 4 3 3 2 1 1 3 6 6 8 10 9 8 8 6 6 7 6 6 4 4 3
0 5 16 15 7 7 5 7 7 7 8 1 3 3 2 1 1 2 3 2 2 2 2 5 4 3 7 8 4 5 2 1 1 2 2 3 3 3 5 8 7 9 8 7 7 6 7 8 7 4 5 5 4 4
3 7 14 12 8 5 5 5 4 7 2 3 2 1 2 2 1 2 2 2 1 1 1 2 4 4 5 1 1 1 3 3 4 1 2 5 3 5 7 7 7 8 7 6 5 4 3 3 3 4 3 3 4 2
6 13 14 15 7 4 6 4 3 6 3 1 2 2 2 2 2 1 4 5 3 2 1 0 2 1 1 2 1 1 1 3 7 3 2 2 3 4 5 4 5 7 6 5 5 5 4 3 2 2 3 3 4 3
7 8 11 6 5 8 7 4 5 3 3 3 1 2 2 2 4 4 3 4 4 3 1 1 2 2 1 2 2 3 4 2 1 2 4 4 1 3 4 5 5 5 3 4 4 3 2 3 3 2 3 2 2 3
3 10 4 7 6 5 6 5 3 1 3 1 2 2 3 2 2 2 2 4 3 2 1 2 2 3 2 3 3 4 4 3 2 4 7 10 5 4 4 4 5 3 3 3 3 4 2 2 2 3 3 2 3 2
7 6 6 9 7 8 2 3 3 5 3 1 1 3 3 2 2 2 3 1 1 0 1 1 2 2 2 2 1 2 6 4 4 3 4 5 4 2 4 2 2 4 3 1 1 3 3 3 3 3 2 2 2 1
12 11 9 7 8 3 2 5 3 3 3 4 3 2 2 2 5 2 3 2 1 1 1 2 2 1 1 1 3 3 4 4 3 3 3 3 4 2 1 1 1 1 2 3 3 3 2 2 3 3 3 2 2 2
11 14 8 9 6 7 8 5 5 5 4 3 2 2 2 3 0 2 2 1 0 0 1 1 2 2 0 1 0 0 0 1 2 3 2 1 3 1 2 2 1 3 2 4 3 3 3 2 2 3 3 2 3 3
13 6 7 2 5 5 3 4 5 3 2 2 3 3 2 2 3 3 2 1 1 2 2 2 1 2 1 1 2 1 1 1 2 2 2 3 2 4 3 3 0 4 4 3 4 3 3 3 3 4 3 4 5 3
8 6 4 0 2 3 3 2 1 3 4 3 3 5 2 4 2 2 1 2 1 1 1 1 1 1 1 0 2 2 2 1 2 1 2 2 3 2 3 4 4 4 3 5 4 5 5 5 3 3 4 3 4 4
3 3 3 5 3 1 4 3 4 2 2 2 1 5 3 2 3 3 2 1 0 0 1 1 0 0 0 1 1 0 2 1 2 2 1 1 1 2 3 3 3 3 3 4 4 3 3 3 3 4 4 5 4 4
4 3 1 5 3 5 3 2 2 3 2 3 2 2 4 4 3 2 3 2 1 2 2 2 3 2 2 2 1 1 1 2 4 4 2 2 3 4 2 2 2 2 2 3 6 6 6 5 6 6 6 5 4 3
4 2 3 1 4 3 3 3 3 3 2 2 1 3 3 4 4 0 2 2 1 3 3 2 1 2 2 1 3 4 2 3 3 4 4 4 4 3 2 3 3 3 3 2 2 2 6 4 4 2 2 4 4 5
2 3 3 3 1 3 3 2 2 1 1 1 1 2 4 5 6 3 3 3 3 2 2 1 3 3 3 3 3 1 4 3 6 8 5 3 3 3 3 4 3 3 3 3 2 2 2 3 3 5 6 8 9 8
4 3 2 3 4 3 3 3 1 1 3 2 2 1 4 3 4 4 3 4 3 2 6 3 3 5 6 5 3 3 4 2 2 4 7 5 5 5 4 4 3 3 4 4 4 3 5 7 6 7 8 10 11 11
2 1 0 2 4 5 4 4 4 5 3 3 3 1 2 2 4 4 2 4 4 4 4 5 5 4 5 6 6 5 6 4 6 9 9 10 9 7 4 3 3 3 4 4 4 5 7 8 9 10 11 11 13 13
Wind_Direction
274 261 257 250 263 268 259 255 251 247 249 246 243 246 242 235 230 198 139 179 152 196 263 199 181 138 101 123 147 218 104 352 56 152 139 187 138 207 112 200 181 170 163 168 121 110 261 170 113 167 184 82 135 112
274 267 262 255 257 259 268 264 263 254 246 247 238 236 238 238 229 199 185 177 163 183 293 340 267 276 183 180 140 1 170 163 179 104 124 100 120 112 149 203 236 209 183 176 178 202 343 176 149 158 145 135 153 122
259 257 273 264 271 278 271 270 257 254 256 244 237 231 227 227 225 203 146 165 149 166 249 242 226 256 212 184 176 137 313 197 180 159 154 154 153 129 160 230 108 271 200 139 99 198 167 167 83 126 118 120 123 121
267 265 261 265 269 267 273 274 268 268 261 251 240 232 226 221 223 208 141 169 176 118 201 260 334 243 211 161 155 133 138 91 94 72 115 132 146 162 204 176 164 184 144 157 276 87 82 310 205 152 124 122 118 110
289 267 262 267 265 265 274 272 267 262 255 254 242 236 226 217 217 203 143 188 172 182 163 253 298 241 186 183 166 131 128 126 125 78 115 192 124 102 327 51 240 186 166 175 210 175 154 189 187 168 150 167 165 156
289 280 277 273 264 261 259 258 265 258 249 245 243 235 228 218 204 117 184 205 188 154 136 231 290 338 126 159 153 158 151 115 124 144 198 220 256 125 147 198 223 187 179 160 171 176 165 161 162 155 165 162 141 147
278 272 268 266 269 261 268 256 257 257 249 239 233 231 226 219 190 172 189 199 180 134 132 242 277 300 144 106 58 95 86 163 132 145 199 146 205 131 115 220 174 184 174 179 141 112 101 179 194 178 139 127 111 106
276 271 258 258 264 265 274 280 261 264 243 231 225 220 220 215 203 208 185 120 163 107 116 212 235 348 207 150 141 135 134 119 183 181 45 158 121 108 231 241 161 173 175 162 181 162 136 121 110 128 109 127 149 161
295 236 253 260 261 266 265 285 241 232 219 223 215 215 214 205 183 171 173 166 188 156 178 140 142 216 150 180 111 139 150 180 139 194 197 152 162 203 224 216 182 171 179 191 120 99 98 136 160 153 146 157 174 180
356 18 280 277 278 273 270 289 229 221 220 221 199 174 194 174 144 138 157 194 192 188 154 165 78 198 152 167 184 127 178 211 190 208 128 204 211 229 230 193 171 182 188 135 120 249 170 212 190 184 195 163 156 148
351 6 346 327 312 296 291 285 265 239 237 193 181 180 213 155 77 153 218 191 178 184 163 177 153 144 250 148 177 207 189 174 210 208 185 195 220 226 224 185 186 179 173 190 200 211 194 186 171 165 164 161 148 143
340 348 338 317 319 316 322 310 261 197 156 143 126 113 102 132 175 187 174 201 199 182 187 157 179 156 160 108 132 180 188 160 233 154 186 209 232 227 180 198 189 185 181 173 163 149 138 122 108 136 137 151 159 150
333 339 325 323 331 333 324 311 169 134 115 130 143 143 147 185 191 185 165 181 161 217 163 141 113 125 89 151 211 191 222 194 116 180 207 213 227 214 190 175 169 110 135 130 123 100 105 107 97 111 134 123 130 147
332 328 324 342 329 326 312 278 168 142 87 126 143 142 189 189 186 177 147 160 218 140 151 118 120 137 154 171 180 238 93 3 218 184 208 243 227 217 198 152 130 180 164 146 138 130 131 135 130 104 114 144 144 166
329 340 333 332 334 318 291 210 118 52 54 111 125 175 208 138 49 341 279 34 17 268 129 73 47 116 149 185 184 107 134 250 236 231 220 217 231 180 162 144 128 140 143 128 123 128 132 131 136 125 142 148 143 144
341 356 336 341 343 318 118 89 47 73 62 55 44 94 314 33 342 357 302 94 319 144 79 64 116 104 216 176 152 190 166 209 226 216 286 333 341 350 44 98 110 130 135 131 128 127 127 130 144 138 131 146 167 165
21 18 330 346 8 37 26 68 73 52 81 60 90 346 291 19 111 193 237 305 302 80 165 121 136 199 111 109 230 190 189 210 216 259 282 312 320 38 48 86 104 117 117 124 125 124 119 118 117 122 142 202 172 154
316 296 347 353 27 53 34 39 76 68 64 9 70 311 54 300 86 353 324 325 27 55 61 188 121 150 173 169 226 228 241 234 345 300 334 352 4 58 92 109 94 102 106 104 110 115 133 133 146 173 150 165 129 101
214 13 10 17 53 81 66 47 53 92 119 169 149 102 130 203 3 39 272 322 80 208 1 51 133 185 217 21 309 8 268 185 136 354 332 331 31 88 98 94 100 106 113 118 129 129 122 127 152 151 153 157 126 132
3 23 13 31 49 78 74 39 48 88 94 212 51 33 110 107 205 7 38 23 28 14 24 257 224 263 149 302 334 306 230 173 138 112 28 14 348 69 85 116 113 112 101 87 87 115 110 77 38 149 153 144 123 153
27 342 7 55 56 56 74 22 55 77 125 84 263 25 53 27 31 28 15 329 56 39 335 328 299 305 233 237 296 287 355 304 320 98 143 151 166 102 113 94 126 116 129 150 134 119 125 161 180 153 117 121 144 136
313 7 46 13 75 65 76 12 61 74 71 142 63 33 63 71 73 29 298 48 45 35 2 309 345 321 352 32 1 349 299 316 36 89 92 116 131 139 138 146 151 137 138 137 145 152 175 197 154 125 114 132 108 110
15 23 49 16 74 42 31 328 71 9 106 92 226 79 46 49 45 286 89 67 146 150 281 331 316 305 7 6 358 20 11 30 65 65 87 84 77 86 109 126 136 126 108 281 174 149 155 178 145 119 119 101 102 109
32 46 36 38 21 60 331 30 21 36 52 35 30 80 31 350 319 65 63 354 341 328 32 11 331 346 350 41 41 12 10 12 83 81 28 105 108 72 14 151 130 135 170 133 144 148 141 143 140 124 129 130 170 184
65 2 26 8 3 22 31 21 7 43 63 2 23 56 24 329 122 74 64 121 233 16 9 341 356 354 66 97 167 334 32 327 79 91 315 97 108 62 24 24 347 248 184 119 138 155 182 144 131 154 155 169 210 245
64 324 42 331 348 50 345 43 22 27 9 46 10 318 320 309 29 38 52 87 195 193 188 199 188 174 150 217 177 186 242 213 160 94 278 170 148 131 150 125 81 292 189 174 138 164 177 173 170 184 210 238 239 238
58 342 335 150 126 121 64 27 67 70 52 24 323 337 344 70 339 302 13 171 211 159 203 199 168 109 101 167 226 248 229 186 110 182 276 223 201 179 143 156 208 244 170 177 170 160 176 188 186 196 221 243 221 214
126 31 47 318 31 16 112 61 48 39 292 257 113 24 98 153 220 263 246 4 120 74 78 82 144 16 0 264 267 0 11 9 351 350 355 38 204 236 239 249 256 243 177 179 182 183 176 177 182 196 214 234 244 213
40 332 68 15 19 43 62 105 220 244 215 109 113 303 267 241 241 241 278 311 20 67 36 349 312 9 350 1 32 324 90 113 85 58 28 293 337 290 194 207 241 205 178 187 222 187 199 206 210 218 227 240 247 237
330 18 59 41 68 22 258 169 234 259 238 206 257 305 296 279 256 175 91 60 128 218 227 203 283 118 238 148 304 314 260 193 187 156 172 221 229 259 217 200 212 213 187 181 217 288 310 15 351 16 232 254 252 259
316 15 61 44 124 249 233 265 295 300 4 320 327 176 254 300 306 234 195 202 161 115 108 258 277 219 178 203 189 184 290 246 217 227 224 231 243 236 233 225 222 204 191 199 205 214 229 248 241 256 265 267 268 266
3 56 70 24 314 293 24 38 317 17 324 19 281 299 313 349 299 273 195 122 103 205 232 192 192 248 211 227 224 245 244 247 221 222 226 232 239 238 238 240 225 196 190 203 208 217 238 244 254 254 261 265 267 267
29 29 95 6 355 360 335 13 9 343 9 355 299 249 236 188 253 281 237 213 185 188 205 212 226 226 223 220 220 231 229 231 243 257 250 242 233 234 220 218 209 195 207 222 226 224 242 247 256 258 260 262 268 270